Weather History for Wainwright, AK

Change the Weather History Date:

Monday, September 24, 2012

  Actual Average (PABR) Record (PABR)
Temperature  
Mean Temperature 35 °F 29 °F  
Max Temperature 37 °F 33 °F 53 °F (1995)
Min Temperature 33 °F 26 °F 3 °F (1985)
Degree Days  
Heating Degree Days 30 36  
Month to date heating degree days 761  
Since 1 July heating degree days 2315  
Cooling Degree Days 0    
Month to date cooling degree days  
Year to date cooling degree days  
Moisture  
Dew Point 29 °F    
Average Humidity 79    
Maximum Humidity 89    
Minimum Humidity 65    
Precipitation  
Precipitation 0.00 in 0.02 in 0.45 in (1943)
Month to date precipitation 0.61  
Year to date precipitation 3.66  
Snow  
Snow 0.00 in 0.20 in 1.50 in (1921)
Month to date snowfall 3.1  
Since 1 July snowfall 4.2  
Since 1 September snowfall 3.1  
Snow Depth -    
Sea Level Pressure  
Sea Level Pressure 29.55 in    
Wind  
Wind Speed 21 mph (South)    
Max Wind Speed 32 mph    
Max Gust Speed 41 mph    
Visibility 7 miles    
Events Snow    
T = Trace of Precipitation, MM = Missing Value Source: NWS Daily Summary

Daily Weather History Graph

Daily Weather History Graph

Search for Another Location

Airport:

Trip Planner

Search our weather history database for the weather conditions in past years. The results will help you decide how hot, cold, wet, or windy it might be!

Date:

Astronomy

Sep. 24, 2012 Rise Set
Actual Time 8:30 AM AKDT 8:30 PM AKDT
Civil Twilight 7:27 AM AKDT 9:33 PM AKDT
Nautical Twilight 6:07 AM AKDT 10:52 PM AKDT
Astronomical Twilight 4:17 AM AKDT 12:37 AM AKDT
Moon 8:00 PM AKDT (9/24) No Moon Set
Length of Visible Light 14h 05m
Length of Day
11h 59m
Waxing Gibbous, 72% of the Moon is Illuminated
Sep 24
Waxing Gibbous
Sep 29
Full
Oct 7
Last Quarter
Oct 15
New
Oct 21
First Quarter

Hourly Weather History & Observations

Time (AKDT) Temp. Windchill Dew Point Humidity Pressure Visibility Wind Dir Wind Speed Gust Speed Precip Events Conditions
12:53 AM 37.0 °F 28.1 °F 30.0 °F 76% 29.43 in 10.0 mi South 15.0 mph - N/A   Clear
1:53 AM 36.0 °F 27.5 °F 30.0 °F 79% 29.46 in 10.0 mi South 12.7 mph - N/A   Clear
2:53 AM 36.0 °F 26.3 °F 28.9 °F 76% 29.49 in 10.0 mi South 16.1 mph - N/A   Clear
3:53 AM 35.1 °F 25.9 °F 28.9 °F 78% 29.50 in 10.0 mi SSE 13.8 mph - N/A   Clear
4:53 AM 35.1 °F 25.9 °F 28.9 °F 78% 29.52 in 10.0 mi SSE 13.8 mph - N/A   Clear
5:53 AM 35.1 °F 24.8 °F 28.0 °F 76% 29.53 in 10.0 mi SSE 17.3 mph - N/A   Clear
6:53 AM 35.1 °F 24.8 °F 28.0 °F 76% 29.55 in 10.0 mi South 17.3 mph - N/A   Clear
7:53 AM 34.0 °F 22.7 °F 27.0 °F 75% 29.56 in 10.0 mi South 19.6 mph - N/A   Clear
8:53 AM 35.1 °F 23.8 °F 27.0 °F 72% 29.56 in 10.0 mi South 20.7 mph 32.2 mph N/A   Clear
9:53 AM 35.1 °F 24.5 °F 27.0 °F 72% 29.58 in 10.0 mi SSE 18.4 mph - N/A   Clear
10:53 AM 35.1 °F 23.3 °F 27.0 °F 72% 29.58 in 10.0 mi South 23.0 mph - N/A   Clear
11:53 AM 36.0 °F 25.0 °F 27.0 °F 70% 29.59 in 10.0 mi South 20.7 mph - N/A   Clear
12:53 PM 37.9 °F 26.8 °F 27.0 °F 65% 29.60 in 10.0 mi South 24.2 mph 29.9 mph N/A   Scattered Clouds
1:53 PM 37.0 °F 25.9 °F 26.1 °F 65% 29.60 in 10.0 mi South 23.0 mph 33.4 mph N/A   Partly Cloudy
2:53 PM 37.0 °F 24.5 °F 26.1 °F 65% 29.59 in 10.0 mi South 29.9 mph 41.4 mph N/A   Clear
3:53 PM 36.0 °F 23.0 °F 28.0 °F 73% 29.60 in 10.0 mi South 29.9 mph 36.8 mph N/A   Overcast
4:53 PM 35.1 °F 21.4 °F 28.0 °F 76% 29.59 in 10.0 mi South 32.2 mph 39.1 mph 0.00 in   Overcast
5:53 PM 36.0 °F 22.8 °F 27.0 °F 70% 29.59 in 8.0 mi South 31.1 mph 40.3 mph 0.00 in Snow Light Snow
6:39 PM 33.8 °F 20.8 °F 28.4 °F 81% 29.58 in 1.8 mi South 26.5 mph 38.0 mph 0.00 in Snow Light Snow
6:53 PM 33.1 °F 19.1 °F 30.0 °F 89% 29.58 in 2.0 mi South 29.9 mph 35.7 mph 0.00 in Snow Light Snow
7:19 PM 33.8 °F 20.1 °F 28.4 °F 81% 29.58 in 2.0 mi South 29.9 mph 35.7 mph 0.00 in Snow Light Snow
7:28 PM 33.8 °F 20.1 °F 28.4 °F 81% 29.57 in 1.5 mi South 29.9 mph 38.0 mph 0.00 in Snow Light Snow
7:53 PM 33.1 °F 18.9 °F 30.0 °F 89% 29.57 in 1.0 mi South 31.1 mph 38.0 mph 0.00 in Snow Light Snow
8:01 PM 33.8 °F 20.1 °F 30.2 °F 87% 29.56 in 0.8 mi SSE 29.9 mph 38.0 mph 0.00 in Snow Light Snow
8:12 PM 33.8 °F 19.9 °F 30.2 °F 87% 29.56 in 1.0 mi South 31.1 mph 36.8 mph 0.00 in Snow Light Snow
8:38 PM 33.8 °F 20.1 °F 30.2 °F 87% 29.55 in 1.5 mi South 29.9 mph 38.0 mph 0.00 in Snow Light Snow
8:53 PM 33.1 °F 19.1 °F 30.0 °F 89% 29.56 in 1.8 mi South 29.9 mph 35.7 mph 0.00 in Snow Light Snow
9:45 PM 33.8 °F 20.1 °F 30.2 °F 87% 29.54 in 2.5 mi South 29.9 mph 33.4 mph 0.00 in Snow Light Snow
9:53 PM 33.1 °F 20.1 °F 30.0 °F 89% 29.55 in 5.0 mi South 25.3 mph 33.4 mph 0.00 in Snow Light Snow
10:00 PM 33.8 °F 20.8 °F 30.2 °F 87% 29.54 in 8.0 mi South 26.5 mph 36.8 mph 0.00 in   Overcast
10:45 PM 33.8 °F 20.3 °F 30.2 °F 87% 29.53 in 6.0 mi South 28.8 mph 35.7 mph 0.00 in Snow Light Snow
10:53 PM 33.1 °F 19.6 °F 30.0 °F 89% 29.53 in 9.0 mi South 27.6 mph 39.1 mph 0.00 in Snow Light Snow
11:46 PM 33.8 °F 20.3 °F 30.2 °F 87% 29.52 in 10.0 mi South 28.8 mph 39.1 mph 0.00 in   Mostly Cloudy
11:53 PM 34.0 °F 21.0 °F 30.0 °F 85% 29.53 in 10.0 mi South 26.5 mph 38.0 mph 0.00 in   Overcast